User: anonymous   Login
Location: Mentone
(34.5413°N, 85.5351°W)
Time: 18:39:39
(UTC-06:00)
Language:

Okean O Rocket - Orbit

View from above orbital plane
View from above orbital plane
View from above satellite
View from above satellite

Ground track
Ground track

The orbit data is extracted from the following two-line orbital elements,

1 25861U 99039B   17347.85541125  .00000040  00000-0  12907-4 0  9992
2 25861  98.1292 320.6140 0014801 219.9422 164.1547 14.78450563992320
Epoch (UTC): 13 December 2017 20:31:47
Eccentricity: 0.0014801
inclination: 98.1292°
perigee height: 624 km
apogee height: 644 km
right ascension of ascending node: 320.6140°
argument of perigee: 219.9422°
revolutions per day: 14.78450563
mean anomaly at epoch: 164.1547°
orbit number at epoch: 99232

The dashed part of the orbit path shows where the satellite is in the earth's shadow,  

DLR